This is the latest recevied weather packets stored in our database for station/object K5UBE. If no packets are shown the sender has not sent any weather packets the latest 10 day(s).
| Time | Temp. | Humidity | Pressure | Rain* | Wind** | Luminosity | Snow |
|---|---|---|---|---|---|---|---|
| 1777507054 | 18.89° C | 37% | 1017.4 hPa | 0 mm | - | - | - |
| 1777506751 | 18.89° C | 38% | 1017.5 hPa | 0 mm | - | - | - |
| 1777506447 | 19.44° C | 37% | 1017.5 hPa | 0 mm | - | - | - |
| 1777506143 | 18.89° C | 37% | 1017.4 hPa | 0 mm | - | - | - |
| 1777505839 | 18.89° C | 37% | 1017.3 hPa | 0 mm | - | - | - |
| 1777505536 | 19.44° C | 36% | 1017.2 hPa | 0 mm | - | - | - |
| 1777505232 | 19.44° C | 37% | 1017.2 hPa | 0 mm | - | - | - |
| 1777504929 | 19.44° C | 37% | 1017.2 hPa | 0 mm | - | - | - |
| 1777504626 | 18.89° C | 37% | 1017.3 hPa | 0 mm | - | - | - |
| 1777504323 | 19.44° C | 36% | 1017.3 hPa | 0 mm | - | - | - |
| 1777504017 | 19.44° C | 35% | 1017.1 hPa | 0 mm | - | - | - |
| 1777503715 | 19.44° C | 36% | 1017.4 hPa | 0 mm | - | - | - |
| 1777503411 | 19.44° C | 37% | 1017 hPa | 0 mm | - | - | - |
| 1777503107 | 18.89° C | 37% | 1017.2 hPa | 0 mm | - | - | - |
| 1777502805 | 19.44° C | 37% | 1017.4 hPa | 0 mm | - | - | - |
| 1777502502 | 18.89° C | 37% | 1017.5 hPa | 0 mm | - | - | - |
| 1777502199 | 18.89° C | 38% | 1017.5 hPa | 0 mm | - | - | - |
| 1777501896 | 19.44° C | 37% | 1017.4 hPa | 0 mm | - | - | - |
| 1777501593 | 18.89° C | 38% | 1017.4 hPa | 0 mm | - | - | - |
| 1777501290 | 18.89° C | 37% | 1017.5 hPa | 0 mm | - | - | - |
| 1777500988 | 19.44° C | 37% | 1017.6 hPa | 0 mm | - | - | - |
| 1777500686 | 20° C | 37% | 1017.6 hPa | 0 mm | - | - | - |
| 1777500382 | 18.89° C | 37% | 1017.4 hPa | 0 mm | - | - | - |
| 1777500078 | 18.33° C | 39% | 1017.5 hPa | 0 mm | - | - | - |
| 1777499775 | 18.89° C | 38% | 1017.5 hPa | 0 mm | - | - | - |
* Rain latest hour (hover to see other rain measurements)
** Current wind speed in m/s (hover to see current wind gust speed)